Regional Weather Roundup
Issued by NWS Green Bay, WI

Home | Current Version | Previous Version | Graphics & Text | Print | Product List | Glossary Off
Versions: 1 2 3 4 5 6 7 8 9 10 11 12 13 14 15 16 17 18 19 20 21 22 23 24 25 26 27 28 29 30 31 32 33 34 35 36 37 38 39 40 41 42 43 44 45 46 47 48 49 50

000
ASUS43 KGRB 201759
RWRGRB

NORTH-CENTRAL AND NORTHEAST WISCONSIN REGIONAL WEATHER ROUNDUP
NATIONAL WEATHER SERVICE GREEN BAY WI
100 PM CDT SAT SEP 20 2014

WIZ005-009-010>012-018-019-201900-
NORTH CENTRAL WISCONSIN

CITY           SKY/WX    TMP DP  RH WIND       PRES   REMARKS
IRONWOOD       CLOUDY    64  57  77 NW13G21   29.69R
MANITOWISH WTR NOT AVBL
ARBOR VITAE    NOT AVBL
EAGLE RIVER    NOT AVBL
LAND O LAKES   NOT AVBL
RHINELANDER    MOSUNNY   72  57  59 W16G23    29.72S
PHILLIPS       NOT AVBL
ANTIGO         NOT AVBL
TOMAHAWK       NOT AVBL
MERRILL        NOT AVBL
$$

WIZ013-073-201900-
NORTHEAST WISCONSIN

CITY           SKY/WX    TMP DP  RH WIND       PRES   REMARKS
IRON MOUNTAIN  PTSUNNY   74  56  53 NW17G24   29.65R
MARINETTE      MOSUNNY   73  63  68 W5G16     29.65R
$$

WIZ017-030-035>037-045-201900-
CENTRAL WISCONSIN

CITY           SKY/WX    TMP DP  RH WIND       PRES   REMARKS
MEDFORD        NOT AVBL
WAUSAU         CLOUDY    73  59  61 W15       29.70F
MOSINEE        MOSUNNY   72  61  68 W15G24    29.74S
MARSHFIELD     CLOUDY    72  60  66 W12G21    29.74S
WISC RAPIDS    CLOUDY    71  63  75 W10       29.75S
STEVENS POINT  NOT AVBL
WAUPACA        NOT AVBL
SHAWANO        NOT AVBL
CLINTONVILLE   CLOUDY    72  61  68 W10       29.70F
$$

WIZ038-039-048-051-201900-
FOX VALLEY

CITY           SKY/WX    TMP DP  RH WIND       PRES   REMARKS
NWS GREEN BAY  PTSUNNY   72  64  76 SW12      29.71S
APPLETON       CLOUDY    70  63  78 W12       29.74S
OSHKOSH        PTSUNNY   73  64  73 W9        29.74R
FOND DU LAC    PTSUNNY   73  63  70 SW10      29.74F
$$

WIZ022-050-052-201900-
EAST CENTRAL WISCONSIN

CITY           SKY/WX    TMP DP  RH WIND       PRES   REMARKS
STURGEON BAY   PTSUNNY   72  63  73 SW15G22   29.69S
MANITOWOC      NOT AVBL
SHEBOYGAN      CLOUDY    73  62  68 SW20      29.75R
$$

LMZ563-521-522-541>543-201900-
LAKESHORE

STATION/POSITION TIME  TEMP    WIND        PRES    VSBY  WAVE
                       AIR SEA DIR/SP/G                  HT/PER
                 (UTC) (F)     (DEG/KT/KT) (MB)    (MI)  (FT/S)
SHEBOYGAN LKSHOR 1700   72 54  250/ 19/ 23 1006.9S
KEWAUNEE LKSHORE 1700   71     260/ 10/ 14 1005.1R
NORTHPORT PIER   1700   70     230/  4/ 12 1004.1S
N MID LAKE BUOY  1700   60 58  210/ 21/ 23 1003.8F         6/ 7
CHAMBERS ISLAND  1700   69     210/  8/ 12 1004.1S
MENOMINEE LKSHOR 1700   73     240/  9/ 17 1005.1R
$$


USA.gov is the U.S. government's official web portal to all federal, state and local government web resources and services.